Location: Cosy Dell
(34.2789°N, 117.4537°W)
Time: 21:18:06
(UTC+00:00)

IRS-P3 - Pass Details

Date: 14 July 2020
Orbit: 814 x 818 km, 98.8° (Epoch: 13 August)

Event Time Altitude Azimuth Distance (km) Brightness Sun altitude
Rises 10:19:30 0° 12° (NNE) 3,347 8.4 -24.5°
Reaches altitude 10° 10:21:51 10° 12° (NNE) 2,412 7.4 -24.2°
Maximum altitude 10:27:11 86° 285° (WNW) 823 4.0 -23.6°
Enters shadow 10:28:22 56° 200° (SSW) 961 4.1 -23.4°
